Dewpoint
73 71 71 70 62 55 49 48 50 51 53 55 54 60 58 58 58 58 68 68 67 66 68 70 75 75 76 77 77 76 76 76 77 76 76 76 76 78 77 75 75 75 75 74 74 74 74 74 73
69 69 69 63 50 52 51 49 50 52 53 55 55 56 56 60 61 63 65 66 66 64 65 68 76 75 75 76 76 76 75 75 76 76 75 76 76 76 75 75 75 74 74 74 74 73 74 74 74
69 67 64 57 43 44 46 51 50 52 52 53 54 57 58 60 61 63 65 65 64 66 68 71 75 75 75 76 76 76 76 75 75 75 74 74 75 75 74 74 74 74 74 74 73 73 73 73 74
64 61 58 34 31 42 49 49 50 50 51 53 55 56 58 59 60 62 64 65 66 67 68 73 75 75 75 76 77 76 76 76 75 74 74 74 75 74 74 74 74 74 74 73 73 73 73 73 74
61 55 48 31 33 39 47 49 49 50 51 52 55 56 58 61 62 63 63 64 65 67 67 70 76 76 75 76 76 76 75 75 75 75 74 74 74 74 74 74 73 73 73 72 73 73 73 73 73
55 45 38 29 31 37 45 48 48 49 51 52 55 57 60 63 63 64 64 66 66 67 67 70 75 75 76 76 76 76 75 75 76 75 75 74 74 73 74 73 72 72 72 72 73 72 72 73 73
52 48 37 31 34 34 40 45 45 47 51 51 56 57 60 62 63 64 67 67 66 67 68 70 71 75 76 76 76 76 76 75 75 75 75 74 73 73 73 72 71 72 72 73 73 72 72 73 73
46 41 32 40 31 31 37 42 43 46 50 53 55 56 59 63 64 66 66 66 66 67 68 70 71 71 73 73 76 76 75 74 74 75 74 74 73 73 72 72 72 72 72 72 72 72 72 72 72
40 41 34 34 42 35 37 38 44 49 50 51 52 56 60 63 63 64 66 66 67 68 69 69 68 71 74 74 75 76 74 73 74 74 74 73 70 71 71 74 72 72 72 72 72 72 73 72 73
39 48 37 33 42 37 38 37 43 46 49 50 53 57 61 63 62 62 65 67 66 67 66 67 70 71 71 67 74 72 69 68 69 68 70 69 70 73 69 72 74 72 73 72 73 73 73 73 69
34 44 41 36 37 40 38 39 42 44 46 50 53 56 60 61 62 61 63 64 63 64 64 69 73 73 72 74 69 69 68 68 68 71 71 69 69 72 71 74 71 72 72 73 72 71 70 68 67
31 39 38 37 38 40 38 40 40 41 44 48 53 55 59 60 61 61 62 62 63 65 65 67 71 73 72 72 69 67 66 66 66 68 73 72 69 73 70 72 73 72 72 70 71 70 69 69 69
29 32 33 33 37 38 42 40 39 40 44 48 54 55 57 59 61 61 61 61 63 64 65 67 69 72 72 74 68 67 67 65 66 67 70 69 67 74 74 71 69 70 72 72 69 69 68 69 69
29 30 29 31 34 39 41 41 42 41 46 49 54 55 56 58 59 61 62 62 63 64 65 66 69 73 74 74 74 71 69 70 66 66 67 72 70 76 70 75 73 73 72 73 67 70 69 70 68
27 27 31 33 33 37 39 40 39 43 48 50 53 56 56 57 58 60 61 62 63 64 66 67 69 71 73 74 74 71 68 67 68 66 70 70 72 72 74 73 70 69 72 72 72 73 72 67 60
24 27 27 33 33 35 38 39 43 45 46 48 52 55 56 57 57 60 61 62 64 65 67 68 66 68 72 74 74 71 69 73 69 70 72 72 73 74 74 70 69 73 70 73 69 72 67 61 60
26 24 27 33 34 38 39 40 44 47 45 47 50 53 55 57 58 60 60 62 63 66 68 69 70 69 71 76 73 72 74 72 73 71 71 75 73 74 73 70 72 74 71 70 68 68 67 60 60
27 26 28 35 33 39 38 42 44 46 47 43 48 50 54 55 57 59 61 62 63 65 68 70 70 73 73 78 78 74 69 71 71 71 70 73 72 74 73 70 72 71 74 68 72 69 63 63 62
26 27 26 29 31 36 38 38 42 46 47 46 46 48 52 54 57 59 61 62 63 65 68 71 73 76 73 71 73 71 69 70 69 68 74 75 74 74 74 71 73 71 71 72 68 65 65 60 62
24 26 28 29 31 34 36 38 39 48 48 47 47 47 49 52 54 59 61 62 62 66 69 73 74 77 76 72 74 72 72 68 66 67 72 73 75 74 73 75 70 71 69 70 68 67 62 59 62
24 25 27 27 37 38 36 38 38 41 48 49 47 48 48 50 51 57 60 62 63 66 70 73 77 78 77 77 74 75 74 71 71 68 70 72 73 73 74 73 73 73 69 58 67 65 64 58 63
22 24 26 27 34 35 33 31 38 37 41 48 49 48 48 50 52 55 59 62 62 65 69 74 77 78 78 78 74 76 70 67 64 66 66 70 74 73 73 74 72 72 65 69 65 63 65 65 60
21 23 27 28 31 41 31 30 36 36 37 42 47 49 48 49 51 54 58 61 62 64 66 71 77 79 79 78 77 72 73 66 65 63 74 73 76 72 70 71 72 70 63 67 67 65 67 65 61
20 23 26 26 27 28 32 32 35 36 37 38 42 48 50 50 50 55 57 60 62 63 65 69 77 79 79 78 77 77 77 73 66 67 68 67 66 69 71 69 72 70 65 66 65 67 67 66 65
19 21 22 24 23 23 29 32 42 37 34 36 36 39 47 51 51 53 58 59 62 65 67 69 76 79 79 77 77 77 77 77 75 73 69 69 63 64 72 72 74 68 68 66 67 68 67 65 64
18 19 20 27 23 23 28 28 30 34 33 31 33 32 40 49 51 50 56 60 64 65 69 70 74 78 79 77 78 79 79 72 70 73 69 66 64 64 71 71 71 70 67 67 67 63 62 66 63
15 18 20 21 24 22 23 27 29 33 34 32 32 31 32 45 50 51 53 58 62 64 68 70 74 76 77 74 79 79 78 77 72 76 75 69 73 65 66 69 71 70 67 67 68 62 66 64 64
9 15 18 22 28 25 22 26 25 33 32 31 33 31 34 39 50 51 52 55 60 61 65 69 72 75 75 75 76 76 76 78 77 77 76 74 73 71 71 69 69 69 69 69 70 66 67 66 61
9 10 19 20 22 22 22 24 28 34 36 33 32 31 32 40 48 51 51 53 57 59 62 66 69 73 74 75 75 76 75 75 76 75 75 75 74 74 72 72 70 68 67 67 68 67 65 67 67
11 13 14 21 31 23 24 22 26 28 29 31 32 31 33 40 46 50 51 52 54 59 59 61 64 66 71 74 76 76 76 75 75 76 76 76 75 74 72 72 70 67 67 68 67 65 63 63 62
Lifted_Index
-4 -5 -5 -5 -3 -1 -1 -1 -2 -2 -2 -2 -2 -1 -1 -1 -2 -2 -2 -2 -2 -1 -2 -3 -3 -4 -4 -5 -5 -5 -5 -6 -6 -6 -6 -6 -6 -7 -7 -6 -6 -6 -6 -6 -6 -6 -6 -6 -6
-5 -5 -6 -5 -3 -2 -1 -2 -2 -2 -2 -2 -2 -2 -1 -1 -2 -2 -2 -2 -2 -1 -2 -2 -3 -4 -4 -5 -5 -5 -5 -6 -6 -6 -6 -6 -6 -7 -7 -6 -6 -6 -6 -6 -6 -6 -6 -6 -6
-5 -5 -5 -4 -2 -2 -2 -2 -2 -2 -2 -2 -2 -2 -2 -2 -2 -2 -2 -2 -2 -2 -2 -3 -4 -4 -4 -5 -5 -6 -6 -6 -6 -6 -6 -6 -6 -7 -7 -6 -6 -6 -6 -6 -6 -6 -7 -7 -7
-5 -5 -4 -2 -1 -1 -2 -2 -2 -2 -2 -2 -3 -2 -2 -2 -2 -2 -2 -2 -2 -2 -3 -3 -4 -4 -5 -5 -6 -6 -6 -7 -6 -6 -6 -6 -7 -7 -7 -7 -7 -6 -6 -6 -6 -7 -7 -7 -7
-4 -4 -3 -1 0 -0 -1 -2 -2 -2 -2 -3 -3 -3 -3 -3 -2 -2 -3 -3 -3 -3 -3 -3 -4 -4 -5 -6 -6 -6 -7 -7 -7 -7 -7 -7 -7 -7 -7 -7 -7 -7 -6 -7 -7 -7 -7 -7 -7
-3 -2 -1 -0 1 1 -0 -1 -2 -2 -2 -3 -3 -3 -3 -3 -3 -3 -3 -3 -3 -3 -3 -4 -4 -5 -6 -6 -6 -7 -7 -7 -7 -7 -7 -7 -7 -7 -7 -7 -7 -7 -7 -7 -7 -7 -6 -7 -7
-2 -2 -1 -0 1 1 1 -0 -1 -2 -2 -3 -3 -3 -4 -4 -4 -4 -4 -3 -3 -4 -4 -4 -5 -5 -6 -6 -6 -7 -7 -7 -7 -7 -7 -7 -7 -7 -7 -6 -6 -6 -7 -7 -7 -6 -6 -6 -6
-1 -1 -1 -1 -0 1 1 0 -0 -1 -2 -3 -3 -3 -4 -4 -4 -4 -4 -4 -4 -4 -5 -5 -5 -5 -6 -6 -7 -7 -7 -6 -6 -7 -7 -6 -6 -6 -6 -6 -6 -6 -6 -6 -6 -6 -6 -6 -6
-0 -1 -1 -1 -1 0 1 1 0 -1 -2 -2 -3 -3 -4 -4 -4 -5 -5 -4 -4 -5 -5 -5 -5 -5 -6 -6 -6 -6 -6 -5 -5 -5 -5 -5 -5 -5 -5 -5 -6 -6 -6 -6 -6 -5 -5 -5 -5
-0 -1 -1 -1 -1 -1 1 1 0 -0 -1 -2 -2 -3 -4 -4 -4 -5 -5 -5 -4 -4 -4 -5 -5 -6 -6 -6 -6 -5 -5 -4 -4 -4 -4 -4 -5 -5 -5 -5 -5 -5 -5 -5 -5 -5 -5 -5 -5
-0 -1 -1 -1 -1 -1 -0 0 0 0 -1 -1 -2 -3 -4 -4 -4 -4 -5 -4 -4 -4 -4 -5 -5 -6 -6 -6 -5 -5 -4 -4 -3 -4 -4 -4 -4 -4 -4 -5 -5 -5 -5 -5 -5 -4 -4 -4 -4
-0 -1 -1 -1 -1 -2 -2 -1 0 1 -0 -1 -2 -3 -3 -4 -4 -4 -4 -4 -4 -4 -4 -5 -5 -5 -6 -5 -5 -4 -4 -3 -3 -3 -4 -4 -4 -4 -4 -4 -5 -4 -4 -4 -4 -4 -4 -3 -3
0 -0 -1 -1 -1 -2 -2 -1 0 1 0 -1 -2 -2 -3 -3 -4 -4 -4 -4 -4 -4 -4 -4 -5 -5 -6 -5 -5 -4 -3 -3 -3 -3 -3 -4 -4 -4 -4 -4 -4 -4 -4 -4 -4 -4 -3 -3 -3
-0 -0 -0 -0 -0 -1 -1 -1 0 1 -0 -1 -2 -2 -3 -3 -3 -3 -3 -3 -3 -4 -4 -4 -5 -5 -6 -6 -5 -4 -3 -3 -3 -3 -3 -3 -4 -4 -4 -4 -4 -4 -4 -4 -4 -4 -3 -3 -2
-0 -0 -0 -0 0 0 -0 -0 -0 0 -0 -1 -2 -2 -3 -3 -3 -3 -3 -3 -3 -3 -3 -4 -4 -5 -5 -6 -5 -4 -4 -3 -3 -3 -3 -4 -4 -4 -5 -5 -4 -4 -4 -4 -4 -4 -3 -2 -1
0 -0 -0 -0 0 0 0 -0 -1 -1 -1 -1 -2 -2 -3 -2 -2 -2 -2 -3 -3 -3 -3 -4 -4 -5 -5 -6 -5 -5 -4 -4 -4 -4 -4 -4 -5 -5 -5 -5 -4 -4 -4 -4 -4 -3 -2 -1 -0
-0 -0 -1 -0 -0 -0 -0 -0 -1 -1 -1 -1 -1 -2 -2 -2 -2 -2 -2 -2 -3 -3 -3 -4 -4 -4 -5 -6 -6 -5 -5 -5 -5 -5 -5 -5 -5 -5 -5 -5 -4 -4 -4 -4 -3 -3 -1 -0 0
-0 -1 -1 -0 -0 -1 -1 -1 -2 -2 -1 -0 -0 -1 -2 -2 -2 -2 -2 -2 -2 -3 -3 -4 -4 -5 -5 -6 -6 -5 -5 -5 -5 -5 -5 -5 -5 -5 -5 -5 -5 -4 -4 -3 -3 -2 -0 0 0
-1 -1 -1 -1 -1 -1 -1 -2 -2 -2 -2 -1 -0 -0 -1 -1 -2 -2 -2 -2 -2 -3 -4 -4 -5 -5 -5 -5 -6 -5 -5 -5 -4 -4 -5 -6 -6 -6 -5 -5 -5 -4 -4 -3 -2 -1 0 1 1
-1 -1 -1 -1 -1 -1 -1 -2 -2 -3 -2 -1 -0 -0 -0 -1 -1 -2 -2 -2 -2 -3 -4 -5 -6 -6 -6 -6 -6 -6 -5 -5 -4 -4 -5 -6 -6 -6 -5 -5 -5 -4 -3 -2 -1 -0 1 1 1
-1 -1 -1 -1 -1 -1 -1 -1 -2 -2 -2 -2 -1 -1 -1 -1 -1 -2 -2 -2 -3 -3 -4 -5 -6 -7 -7 -7 -6 -6 -5 -4 -4 -4 -5 -5 -6 -6 -6 -5 -5 -4 -2 -1 -1 -0 1 1 1
-0 -0 -1 -1 -1 -1 -1 -1 -1 -1 -2 -2 -2 -2 -1 -1 -1 -2 -3 -3 -3 -3 -4 -6 -7 -7 -7 -7 -6 -6 -5 -4 -4 -4 -4 -5 -6 -6 -6 -5 -5 -4 -2 -0 -0 0 0 1 1
1 -0 -1 -1 -1 -1 -1 -1 -1 -1 -1 -2 -2 -2 -2 -1 -1 -2 -3 -3 -4 -4 -4 -5 -7 -8 -8 -8 -7 -6 -5 -4 -3 -3 -4 -5 -6 -6 -5 -5 -4 -3 -1 -0 -0 0 0 0 1
1 0 -1 -1 -1 -1 -0 -0 -1 -1 -1 -1 -2 -2 -2 -2 -2 -2 -3 -4 -4 -4 -5 -6 -7 -8 -8 -8 -8 -7 -6 -6 -4 -4 -5 -5 -5 -5 -4 -4 -4 -3 -1 -0 -0 -0 0 0 1
2 1 -0 -1 -1 -1 -1 -1 -1 -1 -1 -1 -1 -2 -2 -3 -3 -3 -3 -4 -4 -5 -5 -6 -8 -9 -9 -8 -8 -8 -8 -7 -6 -5 -5 -4 -3 -4 -4 -4 -4 -3 -1 -0 -0 -0 0 1 1
2 1 -0 -1 -1 -1 -1 -1 -1 -1 -1 -1 -1 -1 -2 -3 -3 -3 -3 -4 -5 -5 -6 -6 -8 -9 -9 -9 -9 -9 -9 -8 -7 -6 -6 -5 -3 -3 -4 -4 -4 -3 -2 -1 -1 -0 0 1 1
2 1 -0 -1 -1 -1 -1 -1 -1 -0 -0 -1 -1 -1 -1 -2 -3 -3 -3 -4 -5 -5 -6 -7 -8 -9 -9 -9 -9 -10 -9 -9 -8 -7 -7 -6 -4 -4 -4 -4 -5 -4 -3 -2 -1 -0 0 1 1
2 1 -0 -1 -1 -1 -1 -1 -1 -1 -0 -0 -1 -1 -1 -2 -3 -3 -3 -4 -4 -5 -6 -7 -8 -8 -9 -9 -10 -10 -10 -9 -9 -8 -8 -7 -6 -5 -5 -5 -5 -4 -3 -2 -1 -1 -1 -0 0
2 1 -0 -1 -1 -1 -1 -1 -1 -1 -0 -0 -1 -1 -1 -2 -3 -3 -3 -3 -4 -4 -5 -6 -7 -8 -8 -9 -10 -10 -10 -9 -9 -9 -8 -7 -7 -7 -6 -5 -4 -3 -2 -2 -1 -1 -1 -0 -0
1 1 -0 -1 -1 -1 -1 -1 -1 -1 -1 -1 -1 -1 -1 -1 -2 -3 -4 -3 -3 -4 -4 -5 -6 -7 -8 -9 -10 -10 -10 -9 -9 -9 -9 -8 -7 -7 -6 -5 -4 -2 -2 -1 -1 -1 -1 -0 -1